Air Quality Table

TIMESTAMP NO2 SO2 O3 PM10 PM2.5 CO TEMP HUM AIRPRES WS WD NO BENZENE
2022-08-10 20:00 33.02 µg/m3 0.34 µg/m3 47.8 µg/m3 27.26 µg/m3 12.89 µg/m3 0 mg/m3 28.98 °C 58.67 % 1,013.18 mbar 1.02 m/s 270.9 Deg 5.24 µg/m3 0.79 µg/m3
2022-08-10 19:00 35.42 µg/m3 0.54 µg/m3 51.36 µg/m3 27.49 µg/m3 11.85 µg/m3 0 mg/m3 29.71 °C 55.24 % 1,013.05 mbar 1.67 m/s 274.68 Deg 7.65 µg/m3 3.25 µg/m3
2022-08-10 18:00 28.38 µg/m3 0.42 µg/m3 56.46 µg/m3 30.59 µg/m3 11.96 µg/m3 0 mg/m3 30.01 °C 61.26 % 1,012.84 mbar 1.67 m/s 322.28 Deg 11.68 µg/m3 0.47 µg/m3
2022-08-10 17:00 18.63 µg/m3 0.29 µg/m3 62.46 µg/m3 25.03 µg/m3 10.05 µg/m3 0 mg/m3 30.45 °C 56.67 % 1,012.97 mbar 1.51 m/s 213.25 Deg 6.79 µg/m3 0.47 µg/m3
2022-08-10 16:00 21.87 µg/m3 0.38 µg/m3 60.28 µg/m3 36.65 µg/m3 14.64 µg/m3 0 mg/m3 30.51 °C 55.19 % 1,013.00 mbar 1.88 m/s 185.05 Deg 13.65 µg/m3 0.58 µg/m3
2022-08-10 15:00 27.06 µg/m3 0.4 µg/m3 56.59 µg/m3 28.75 µg/m3 11.9 µg/m3 0 mg/m3 30.11 °C 60.16 % 1,013.11 mbar 1.76 m/s 196.8 Deg 18.78 µg/m3 1.26 µg/m3
2022-08-10 14:00 32.17 µg/m3 0.58 µg/m3 53.29 µg/m3 30.09 µg/m3 16.24 µg/m3 0 mg/m3 28.22 °C 72.36 % 1,013.77 mbar 1.99 m/s 39.58 Deg 31.3 µg/m3 0.84 µg/m3
2022-08-10 13:00 26.15 µg/m3 0.41 µg/m3 71.13 µg/m3 22.11 µg/m3 14.72 µg/m3 0 mg/m3 28.74 °C 71.19 % 1,013.96 mbar 4.88 m/s 53.75 Deg 23.15 µg/m3 1 µg/m3
2022-08-10 12:00 17.23 µg/m3 0.5 µg/m3 71.34 µg/m3 23.39 µg/m3 13.36 µg/m3 0 mg/m3 28.85 °C 69.75 % 1,014.12 mbar 4.46 m/s 50.12 Deg 28.19 µg/m3 1.05 µg/m3
2022-08-10 11:00 19.03 µg/m3 0.52 µg/m3 62.6 µg/m3 19.66 µg/m3 11.47 µg/m3 0 mg/m3 29.2 °C 67.27 % 1,014.19 mbar 3.59 m/s 57.83 Deg 34.67 µg/m3 0.94 µg/m3
2022-08-10 10:00 24.81 µg/m3 0.48 µg/m3 67.77 µg/m3 19.11 µg/m3 11.79 µg/m3 0 mg/m3 28.61 °C 70.03 % 1,014.11 mbar 3.96 m/s 51.85 Deg 25.79 µg/m3 1.26 µg/m3
2022-08-10 09:00 42.58 µg/m3 0.61 µg/m3 52.82 µg/m3 31.91 µg/m3 15.52 µg/m3 0.46 mg/m3 28.91 °C 67.18 % 1,014.00 mbar 2.16 m/s 119.2 Deg 37.2 µg/m3 1.05 µg/m3
2022-08-10 08:00 32.24 µg/m3 0.34 µg/m3 54.14 µg/m3 48.21 µg/m3 16.4 µg/m3 0.34 mg/m3 28.85 °C 68.5 % 1,013.86 mbar 0.92 m/s 171.92 Deg 15.27 µg/m3 0.84 µg/m3
2022-08-10 07:00 27.31 µg/m3 0.3 µg/m3 55.36 µg/m3 28.76 µg/m3 17.06 µg/m3 0.27 mg/m3 27.77 °C 75.3 % 1,013.64 mbar 1.11 m/s 207.2 Deg 5.45 µg/m3 0.79 µg/m3
2022-08-10 06:00 27.93 µg/m3 0.32 µg/m3 45.7 µg/m3 29.89 µg/m3 20.96 µg/m3 0.26 mg/m3 27.39 °C 79.37 % 1,013.38 mbar 1.09 m/s 209.62 Deg 2.8 µg/m3 0.52 µg/m3
2022-08-10 05:00 11.9 µg/m3 0.2 µg/m3 57.55 µg/m3 22.52 µg/m3 16.55 µg/m3 0.17 mg/m3 27.4 °C 80.68 % 1,013.00 mbar 0.83 m/s 195.37 Deg 0.86 µg/m3 0.47 µg/m3
2022-08-10 04:00 9.2 µg/m3 0.24 µg/m3 52.67 µg/m3 23.58 µg/m3 17.57 µg/m3 0.18 mg/m3 27.6 °C 78.68 % 1,013.04 mbar 0.88 m/s 181.22 Deg 0.74 µg/m3 0.47 µg/m3
2022-08-10 03:00 15.09 µg/m3 0.08 µg/m3 44.26 µg/m3 23.52 µg/m3 17.41 µg/m3 0.2 mg/m3 27.83 °C 76.45 % 1,013.19 mbar 0.77 m/s 183.1 Deg 0.9 µg/m3 0.52 µg/m3
2022-08-10 02:00 15.84 µg/m3 0.14 µg/m3 47.32 µg/m3 22.55 µg/m3 16.26 µg/m3 0.18 mg/m3 28.08 °C 74.33 % 1,013.35 mbar 0.87 m/s 193.28 Deg 0.12 µg/m3 0.52 µg/m3
2022-08-10 01:00 12.37 µg/m3 0.14 µg/m3 58 µg/m3 18.82 µg/m3 13.46 µg/m3 0.2 mg/m3 28.37 °C 73.27 % 1,013.60 mbar 0.66 m/s 206.22 Deg 0.18 µg/m3 0.52 µg/m3
2022-08-10 00:00 15.46 µg/m3 0.23 µg/m3 58.96 µg/m3 16.37 µg/m3 11.8 µg/m3 0.24 mg/m3 28.42 °C 75.35 % 1,014.01 mbar 0.78 m/s 148.22 Deg 6.76 µg/m3 1 µg/m3
2022-08-09 23:00 16.2 µg/m3 0.24 µg/m3 62.59 µg/m3 16.36 µg/m3 11.95 µg/m3 0.29 mg/m3 28.47 °C 75.05 % 1,014.10 mbar 1.09 m/s 43.18 Deg 10.53 µg/m3 0.84 µg/m3
2022-08-09 22:00 16.83 µg/m3 0.25 µg/m3 60.14 µg/m3 26.54 µg/m3 19.45 µg/m3 0.27 mg/m3 28.72 °C 73.6 % 1,013.95 mbar 0.86 m/s 295.28 Deg 3.69 µg/m3 0.68 µg/m3
2022-08-09 21:00 13.67 µg/m3 0.16 µg/m3 67.42 µg/m3 23.34 µg/m3 13.9 µg/m3 0.22 mg/m3 28.81 °C 72.73 % 1,013.89 mbar 1.05 m/s 268.23 Deg 1.06 µg/m3 0.63 µg/m3
2022-08-09 20:00 18.62 µg/m3 0.16 µg/m3 60.65 µg/m3 21.6 µg/m3 12.35 µg/m3 0.26 mg/m3 29.11 °C 71.28 % 1,013.54 mbar 1.5 m/s 289.68 Deg 2.89 µg/m3 0.63 µg/m3
2022-08-09 19:00 22.5 µg/m3 0.23 µg/m3 56.71 µg/m3 23.77 µg/m3 12.14 µg/m3 0.26 mg/m3 29.79 °C 66.64 % 1,013.27 mbar 1.94 m/s 293.73 Deg 4.17 µg/m3 0.73 µg/m3
2022-08-09 18:00 26.09 µg/m3 0.28 µg/m3 60.71 µg/m3 20.8 µg/m3 9.56 µg/m3 0.33 mg/m3 30.5 °C 63.83 % 1,013.24 mbar 2.5 m/s 233.82 Deg 9.15 µg/m3 1.57 µg/m3
2022-08-09 17:00 23.99 µg/m3 0.38 µg/m3 60.25 µg/m3 18.37 µg/m3 9.65 µg/m3 0.44 mg/m3 30.19 °C 68.04 % 1,012.98 mbar 3.56 m/s 48.55 Deg 22.36 µg/m3 1.21 µg/m3
2022-08-09 16:00 25.6 µg/m3 0.39 µg/m3 76.17 µg/m3 24.35 µg/m3 13.17 µg/m3 0.45 mg/m3 30.77 °C 62.47 % 1,012.97 mbar 2.67 m/s 100.77 Deg 18.73 µg/m3 1.26 µg/m3
2022-08-09 15:00 37.82 µg/m3 0.37 µg/m3 92.6 µg/m3 39.89 µg/m3 20.22 µg/m3 0.47 mg/m3 31.61 °C 57.39 % 1,013.18 mbar 1.61 m/s 249.78 Deg 11.97 µg/m3 0.84 µg/m3
2022-08-09 14:00 28.6 µg/m3 0.33 µg/m3 87.39 µg/m3 28.46 µg/m3 14.77 µg/m3 0.38 mg/m3 30.41 °C 62.15 % 1,013.48 mbar 3.22 m/s 41.65 Deg 23.13 µg/m3 1.1 µg/m3
2022-08-09 13:00 27.47 µg/m3 0.25 µg/m3 100.26 µg/m3 21.66 µg/m3 14.75 µg/m3 0.4 mg/m3 29.25 °C 67.97 % 1,014.11 mbar 4.19 m/s 58.02 Deg 19.37 µg/m3 1 µg/m3
2022-08-09 12:00 27.87 µg/m3 0.36 µg/m3 88.33 µg/m3 23.56 µg/m3 15.25 µg/m3 0.43 mg/m3 29.19 °C 68.53 % 1,014.40 mbar 3.58 m/s 56.83 Deg 26.3 µg/m3 1.05 µg/m3
2022-08-09 11:00 22.14 µg/m3 0.4 µg/m3 81.53 µg/m3 23.76 µg/m3 15.13 µg/m3 0.38 mg/m3 29.14 °C 68.26 % 1,014.43 mbar 3.53 m/s 52.12 Deg 31.9 µg/m3 1.21 µg/m3
2022-08-09 10:00 25.31 µg/m3 0.39 µg/m3 78.87 µg/m3 27.9 µg/m3 15.92 µg/m3 0.38 mg/m3 28.98 °C 69 % 1,014.21 mbar 3.42 m/s 57.2 Deg 33.51 µg/m3 1.26 µg/m3
2022-08-09 09:00 44.23 µg/m3 0.47 µg/m3 63.56 µg/m3 32.79 µg/m3 17.21 µg/m3 0.45 mg/m3 29.04 °C 68.37 % 1,013.98 mbar 2.51 m/s 54.53 Deg 37.05 µg/m3 1.78 µg/m3
2022-08-09 08:00 51.38 µg/m3 0.5 µg/m3 54.1 µg/m3 35.86 µg/m3 17.79 µg/m3 0.49 mg/m3 28.86 °C 68.93 % 1,013.80 mbar 1.17 m/s 44.52 Deg 34.35 µg/m3 3.41 µg/m3
2022-08-09 07:00 40.77 µg/m3 0.34 µg/m3 60.46 µg/m3 30.87 µg/m3 18.05 µg/m3 0.53 mg/m3 28.44 °C 72.2 % 1,013.49 mbar 0.73 m/s 87.08 Deg 28.06 µg/m3 1.21 µg/m3
2022-08-09 06:00 33.74 µg/m3 0.15 µg/m3 61.2 µg/m3 26.31 µg/m3 18.21 µg/m3 0.4 mg/m3 27.77 °C 77.03 % 1,012.99 mbar 0.59 m/s 224.8 Deg 5.97 µg/m3 0.89 µg/m3
2022-08-09 05:00 30.05 µg/m3 0.03 µg/m3 60.12 µg/m3 25.6 µg/m3 17.84 µg/m3 0.25 mg/m3 27.73 °C 74.27 % 1,012.75 mbar 0.61 m/s 252.19 Deg 1.3 µg/m3 0.68 µg/m3
2022-08-09 04:00 22.46 µg/m3 0.1 µg/m3 68.9 µg/m3 23.83 µg/m3 16.92 µg/m3 0.22 mg/m3 28 °C 72.38 % 1,012.69 mbar 0.48 m/s 259.06 Deg 1.5 µg/m3 0.52 µg/m3
2022-08-09 03:00 14.02 µg/m3 0.14 µg/m3 71.98 µg/m3 23.37 µg/m3 16.55 µg/m3 0.2 mg/m3 27.96 °C 73.82 % 1,012.66 mbar 0.75 m/s 245.6 Deg 0.26 µg/m3 0.31 µg/m3
2022-08-09 02:00 19.19 µg/m3 0.17 µg/m3 77.04 µg/m3 23.3 µg/m3 16.43 µg/m3 0.2 mg/m3 28.24 °C 73.93 % 1,012.72 mbar 0.6 m/s 183.48 Deg 5.02 µg/m3 0.52 µg/m3
2022-08-09 01:00 17.85 µg/m3 0.17 µg/m3 88.12 µg/m3 21.51 µg/m3 15.39 µg/m3 0.2 mg/m3 28.39 °C 73.87 % 1,013.00 mbar 0.59 m/s 103.81 Deg 1.31 µg/m3 0.79 µg/m3
2022-08-09 00:00 27.15 µg/m3 0.3 µg/m3 77.44 µg/m3 22.83 µg/m3 15.32 µg/m3 0.3 mg/m3 28.4 °C 72.96 % 1,013.53 mbar 1.38 m/s 61.73 Deg 7.91 µg/m3 1 µg/m3
2022-08-08 23:00 20.53 µg/m3 0.32 µg/m3 82.14 µg/m3 21.1 µg/m3 15.32 µg/m3 0.33 mg/m3 28.4 °C 75.43 % 1,013.66 mbar 1.87 m/s 61.92 Deg 12.74 µg/m3 1.31 µg/m3
2022-08-08 22:00 23.02 µg/m3 0.32 µg/m3 78.23 µg/m3 24.62 µg/m3 16.17 µg/m3 0.39 mg/m3 28.85 °C 72.11 % 1,013.50 mbar 1.41 m/s 125.5 Deg 11.2 µg/m3 1.1 µg/m3
2022-08-08 21:00 28.49 µg/m3 0.4 µg/m3 76.66 µg/m3 24.26 µg/m3 15.99 µg/m3 0.38 mg/m3 28.81 °C 73.48 % 1,013.50 mbar 1.68 m/s 52.9 Deg 16.37 µg/m3 1.52 µg/m3
2022-08-08 20:00 33.16 µg/m3 0.48 µg/m3 71.07 µg/m3 25.81 µg/m3 16.49 µg/m3 0.44 mg/m3 28.92 °C 72.59 % 1,012.76 mbar 1.63 m/s 48.33 Deg 22.58 µg/m3 2.15 µg/m3
2022-08-08 19:00 37.9 µg/m3 0.59 µg/m3 73.3 µg/m3 25.1 µg/m3 16.23 µg/m3 0.54 mg/m3 29.04 °C 72.33 % 1,012.23 mbar 2.28 m/s 61.87 Deg 30.24 µg/m3 1.73 µg/m3
2022-08-08 18:00 32.07 µg/m3 0.44 µg/m3 84.41 µg/m3 22.89 µg/m3 15.46 µg/m3 0.5 mg/m3 29.3 °C 70.73 % 1,011.85 mbar 2.89 m/s 57.4 Deg 24.59 µg/m3 1.94 µg/m3
2022-08-08 17:00 22.24 µg/m3 0.42 µg/m3 80.81 µg/m3 20.73 µg/m3 14.65 µg/m3 0.48 mg/m3 29.31 °C 71.98 % 1,011.90 mbar 3.82 m/s 60.38 Deg 21.66 µg/m3 1.36 µg/m3
2022-08-08 16:00 24.9 µg/m3 0.44 µg/m3 81.46 µg/m3 20.92 µg/m3 14.69 µg/m3 0.4 mg/m3 29.41 °C 72.3 % 1,011.68 mbar 3.81 m/s 55.43 Deg 18.68 µg/m3 1.42 µg/m3
2022-08-08 15:00 20.78 µg/m3 0.4 µg/m3 80.69 µg/m3 21.11 µg/m3 14.67 µg/m3 0.46 mg/m3 29.53 °C 71.4 % 1,011.80 mbar 3.46 m/s 57.58 Deg 19.97 µg/m3 1.1 µg/m3
2022-08-08 14:00 21.03 µg/m3 0.36 µg/m3 78.54 µg/m3 23.29 µg/m3 15.47 µg/m3 0.43 mg/m3 29.27 °C 74.23 % 1,012.34 mbar 3.91 m/s 62.37 Deg 21.15 µg/m3 1.05 µg/m3
2022-08-08 13:00 25.83 µg/m3 0.37 µg/m3 89.04 µg/m3 28.74 µg/m3 16.45 µg/m3 0.36 mg/m3 29.57 °C 73.93 % 1,012.22 mbar 3.49 m/s 46.22 Deg 18.91 µg/m3 1.1 µg/m3
2022-08-08 12:00 26.44 µg/m3 0.4 µg/m3 74.1 µg/m3 23.76 µg/m3 14.82 µg/m3 0.36 mg/m3 29.47 °C 73.15 % 1,012.40 mbar 3.11 m/s 39.38 Deg 19.65 µg/m3 1 µg/m3
2022-08-08 11:00 32.2 µg/m3 0.45 µg/m3 64.63 µg/m3 24.03 µg/m3 14.11 µg/m3 0.35 mg/m3 29.7 °C 69.33 % 1,012.43 mbar 2.6 m/s 44.22 Deg 25.36 µg/m3 1.15 µg/m3
2022-08-08 10:00 29 µg/m3 0.51 µg/m3 53.26 µg/m3 28.29 µg/m3 14.75 µg/m3 0.36 mg/m3 29.48 °C 68.48 % 1,012.36 mbar 2.65 m/s 54.95 Deg 30.74 µg/m3 1.31 µg/m3
2022-08-08 09:00 32.82 µg/m3 0.56 µg/m3 44.84 µg/m3 26.8 µg/m3 13.75 µg/m3 0.45 mg/m3 29.58 °C 62.48 % 1,012.04 mbar 2.35 m/s 59.68 Deg 37.93 µg/m3 1.47 µg/m3
2022-08-08 08:00 54.81 µg/m3 0.88 µg/m3 18.62 µg/m3 61.99 µg/m3 20.49 µg/m3 0.47 mg/m3 28.95 °C 69.12 % 1,011.66 mbar 1.07 m/s 46.48 Deg 53.43 µg/m3 2.78 µg/m3
2022-08-08 07:00 52.27 µg/m3 1.02 µg/m3 6.9 µg/m3 32.22 µg/m3 21.16 µg/m3 0.68 mg/m3 27.92 °C 78.17 % 1,011.17 mbar 0.94 m/s 55.87 Deg 62.38 µg/m3 2.47 µg/m3
2022-08-08 06:00 45.14 µg/m3 0.62 µg/m3 2.83 µg/m3 29.91 µg/m3 20.55 µg/m3 0.4 mg/m3 27.3 °C 79.73 % 1,010.77 mbar 0.47 m/s 142.14 Deg 31.96 µg/m3 1.99 µg/m3
2022-08-08 05:00 39.62 µg/m3 0.45 µg/m3 5.16 µg/m3 23.53 µg/m3 16.5 µg/m3 0.31 mg/m3 27.16 °C 78.12 % 1,010.36 mbar 0.73 m/s 112.88 Deg 15.5 µg/m3 0.73 µg/m3
2022-08-08 04:00 16.53 µg/m3 0.23 µg/m3 32.24 µg/m3 20.67 µg/m3 14.67 µg/m3 0.18 mg/m3 27.41 °C 76.64 % 1,010.09 mbar 0.73 m/s 226.68 Deg 1.25 µg/m3 0.68 µg/m3
2022-08-08 03:00 10.22 µg/m3 0.16 µg/m3 42.32 µg/m3 20.62 µg/m3 14.85 µg/m3 0.16 mg/m3 27.39 °C 79.21 % 1,010.17 mbar 0.44 m/s 180.39 Deg 1.62 µg/m3 0.26 µg/m3
2022-08-08 02:00 6.26 µg/m3 0.17 µg/m3 50.94 µg/m3 20.81 µg/m3 14.63 µg/m3 0.13 mg/m3 27.43 °C 82.62 % 1,010.28 mbar 0.94 m/s 222.83 Deg 0.13 µg/m3 0.31 µg/m3
2022-08-08 01:00 11.21 µg/m3 0.17 µg/m3 50.28 µg/m3 20.07 µg/m3 14.12 µg/m3 0.16 mg/m3 27.61 °C 82.02 % 1,010.51 mbar 1.04 m/s 249.77 Deg 1.58 µg/m3 0.37 µg/m3
2022-08-08 00:00 10.93 µg/m3 0.16 µg/m3 49.99 µg/m3 20.21 µg/m3 14.39 µg/m3 0.17 mg/m3 27.64 °C 82.17 % 1,010.86 mbar 1.29 m/s 238.18 Deg 0.84 µg/m3 0.42 µg/m3
2022-08-07 23:00 16.3 µg/m3 0.2 µg/m3 46.82 µg/m3 22.43 µg/m3 15.66 µg/m3 0.2 mg/m3 27.93 °C 80.32 % 1,010.94 mbar 1.16 m/s 231.75 Deg 1.08 µg/m3 0.58 µg/m3
2022-08-07 22:00 19.47 µg/m3 0.2 µg/m3 49.76 µg/m3 25.06 µg/m3 15.73 µg/m3 0.24 mg/m3 28.44 °C 74.23 % 1,010.91 mbar 1.34 m/s 254.03 Deg 1.33 µg/m3 0.84 µg/m3
2022-08-07 21:00 20.02 µg/m3 0.19 µg/m3 52.33 µg/m3 24.36 µg/m3 16.88 µg/m3 0.27 mg/m3 28.48 °C 73.99 % 1,010.81 mbar 1.09 m/s 270.05 Deg 3.19 µg/m3 0.68 µg/m3
2022-08-07 20:00 17.39 µg/m3 0.19 µg/m3 67.53 µg/m3 25.33 µg/m3 15.57 µg/m3 0.23 mg/m3 28.48 °C 75.29 % 1,010.38 mbar 1.61 m/s 297.6 Deg 2.1 µg/m3 0.47 µg/m3
2022-08-07 19:00 23.41 µg/m3 0.22 µg/m3 72.46 µg/m3 24.74 µg/m3 14.25 µg/m3 0.25 mg/m3 29.16 °C 70.08 % 1,009.93 mbar 2.19 m/s 311.9 Deg 3.21 µg/m3 0.84 µg/m3
2022-08-07 18:00 26.61 µg/m3 0.3 µg/m3 83.78 µg/m3 22.43 µg/m3 10.1 µg/m3 0.34 mg/m3 30.52 °C 59.4 % 1,009.60 mbar 1.66 m/s 253.73 Deg 9.56 µg/m3 0.68 µg/m3
2022-08-07 17:00 19.03 µg/m3 0.24 µg/m3 95.91 µg/m3 17.14 µg/m3 8.3 µg/m3 0.32 mg/m3 31.04 °C 57.76 % 1,009.73 mbar 1.8 m/s 267.4 Deg 8.62 µg/m3 0.68 µg/m3
2022-08-07 16:00 16.61 µg/m3 0.31 µg/m3 96.63 µg/m3 15.09 µg/m3 8.7 µg/m3 0.34 mg/m3 30.6 °C 59.65 % 1,009.84 mbar 2.86 m/s 42.4 Deg 10.66 µg/m3 0.73 µg/m3
2022-08-07 15:00 15.76 µg/m3 0.35 µg/m3 92.81 µg/m3 12.78 µg/m3 8.23 µg/m3 0.3 mg/m3 29.73 °C 62.41 % 1,010.09 mbar 3.58 m/s 57.15 Deg 14.26 µg/m3 0.94 µg/m3
2022-08-07 14:00 17.2 µg/m3 0.25 µg/m3 86.77 µg/m3 13.11 µg/m3 8.18 µg/m3 0.29 mg/m3 29.45 °C 65.96 % 1,010.46 mbar 3.63 m/s 62.18 Deg 11.73 µg/m3 0.63 µg/m3
2022-08-07 13:00 14.93 µg/m3 0.29 µg/m3 84.88 µg/m3 13.81 µg/m3 8.58 µg/m3 0.34 mg/m3 29.44 °C 66.8 % 1,010.89 mbar 3.4 m/s 61.17 Deg 12.98 µg/m3 1.15 µg/m3
2022-08-07 12:00 16.9 µg/m3 0.32 µg/m3 82.54 µg/m3 14.89 µg/m3 9.19 µg/m3 0.34 mg/m3 29.34 °C 68.84 % 1,011.23 mbar 3.07 m/s 58.33 Deg 15.86 µg/m3 0.89 µg/m3
2022-08-07 11:00 18.5 µg/m3 0.33 µg/m3 78.34 µg/m3 15.03 µg/m3 9.31 µg/m3 0.33 mg/m3 29.19 °C 67.99 % 1,011.54 mbar 3.12 m/s 56.38 Deg 15.85 µg/m3 0.89 µg/m3
2022-08-07 10:00 18.47 µg/m3 0.28 µg/m3 74.28 µg/m3 16.65 µg/m3 9.83 µg/m3 0.32 mg/m3 29.24 °C 68.03 % 1,011.58 mbar 2.87 m/s 45.68 Deg 14.85 µg/m3 0.68 µg/m3
2022-08-07 09:00 18.48 µg/m3 0.31 µg/m3 68.33 µg/m3 20.98 µg/m3 11.17 µg/m3 0.3 mg/m3 29.24 °C 70.06 % 1,011.23 mbar 1.58 m/s 24.63 Deg 10.61 µg/m3 0.52 µg/m3
2022-08-07 08:00 16.57 µg/m3 0.24 µg/m3 65.21 µg/m3 22.22 µg/m3 11.7 µg/m3 0.29 mg/m3 28.8 °C 75.77 % 1,010.89 mbar 1.27 m/s 184 Deg 7.4 µg/m3 1.05 µg/m3
2022-08-07 07:00 17.4 µg/m3 0.22 µg/m3 56.28 µg/m3 22.67 µg/m3 14.06 µg/m3 0.3 mg/m3 28.28 °C 78.57 % 1,010.50 mbar 0.9 m/s 97.53 Deg 6.94 µg/m3 0.73 µg/m3
2022-08-07 06:00 21.71 µg/m3 0.13 µg/m3 44.42 µg/m3 21.11 µg/m3 14.1 µg/m3 0.25 mg/m3 27.25 °C 75.57 % 1,010.13 mbar 0.79 m/s 260.48 Deg 3.64 µg/m3 0.52 µg/m3
2022-08-07 05:00 15.9 µg/m3 0.15 µg/m3 50.64 µg/m3 19.98 µg/m3 13.44 µg/m3 0.17 mg/m3 27.15 °C 78.49 % 1,009.91 mbar 0.91 m/s 228.28 Deg 0.82 µg/m3 0.31 µg/m3
2022-08-07 04:00 13.08 µg/m3 0.2 µg/m3 62.73 µg/m3 20.95 µg/m3 11.91 µg/m3 0.16 mg/m3 27.67 °C 72.52 % 1,009.92 mbar 0.99 m/s 266.5 Deg 0.49 µg/m3 0.31 µg/m3
2022-08-07 03:00 11.68 µg/m3 0.17 µg/m3 64.08 µg/m3 19.24 µg/m3 10.74 µg/m3 0.16 mg/m3 27.86 °C 70.23 % 1,010.09 mbar 1.3 m/s 271.6 Deg 0.57 µg/m3 0.31 µg/m3
2022-08-07 02:00 8.58 µg/m3 0.22 µg/m3 59.08 µg/m3 17.22 µg/m3 11.79 µg/m3 0.16 mg/m3 27.79 °C 74.87 % 1,010.44 mbar 1.68 m/s 241.1 Deg 0.54 µg/m3 0.42 µg/m3
2022-08-07 01:00 11.82 µg/m3 0.23 µg/m3 54.63 µg/m3 17.05 µg/m3 11.93 µg/m3 0.19 mg/m3 27.8 °C 75.37 % 1,011.05 mbar 1.76 m/s 230.7 Deg 1.42 µg/m3 0.47 µg/m3
2022-08-07 00:00 11.27 µg/m3 0.21 µg/m3 55.53 µg/m3 17.99 µg/m3 12.49 µg/m3 0.19 mg/m3 27.9 °C 76.21 % 1,011.69 mbar 1.68 m/s 223.85 Deg 1.33 µg/m3 0.37 µg/m3
2022-08-06 23:00 9.55 µg/m3 0.2 µg/m3 53.44 µg/m3 16.36 µg/m3 11.14 µg/m3 0.18 mg/m3 28.21 °C 73.97 % 1,011.97 mbar 2.02 m/s 225.42 Deg 0.78 µg/m3 0.47 µg/m3
2022-08-06 22:00 16.28 µg/m3 0.28 µg/m3 47.54 µg/m3 38.36 µg/m3 28.59 µg/m3 0.23 mg/m3 28.48 °C 72.78 % 1,012.06 mbar 1.98 m/s 246.48 Deg 2.26 µg/m3 0.58 µg/m3
2022-08-06 21:00 15.9 µg/m3 0.23 µg/m3 50.16 µg/m3 31.44 µg/m3 22.61 µg/m3 0.25 mg/m3 28.72 °C 72.2 % 1,012.04 mbar 1.98 m/s 258.78 Deg 1.95 µg/m3 0.68 µg/m3
2022-08-06 20:00 18.77 µg/m3 0.27 µg/m3 48.96 µg/m3 19.51 µg/m3 12.15 µg/m3 0.26 mg/m3 29.14 °C 69.58 % 1,011.80 mbar 2.41 m/s 258.75 Deg 3.59 µg/m3 0.68 µg/m3
2022-08-06 19:00 17.84 µg/m3 0.28 µg/m3 53.72 µg/m3 24.76 µg/m3 15.77 µg/m3 0.22 mg/m3 29.97 °C 63.24 % 1,011.50 mbar 2.87 m/s 255.93 Deg 3.95 µg/m3 0.47 µg/m3
2022-08-06 18:00 16.16 µg/m3 0.25 µg/m3 64.65 µg/m3 20.41 µg/m3 11.32 µg/m3 0.21 mg/m3 31.07 °C 54.85 % 1,011.25 mbar 3.17 m/s 254.78 Deg 3.57 µg/m3 0.31 µg/m3
2022-08-06 17:00 13.9 µg/m3 0.19 µg/m3 75.89 µg/m3 19.09 µg/m3 9.29 µg/m3 0.18 mg/m3 31.99 °C 43.94 % 1,011.41 mbar 3.37 m/s 254.43 Deg 3.04 µg/m3 0.37 µg/m3
2022-08-06 16:00 20.29 µg/m3 0.22 µg/m3 77.76 µg/m3 23.08 µg/m3 8.49 µg/m3 0.18 mg/m3 32.89 °C 38.31 % 1,011.61 mbar 3.08 m/s 255.73 Deg 3.07 µg/m3 0.37 µg/m3
2022-08-06 15:00 19.62 µg/m3 0.24 µg/m3 85.86 µg/m3 21.26 µg/m3 8.39 µg/m3 0.18 mg/m3 33.34 °C 35.06 % 1,012.01 mbar 3.24 m/s 260.23 Deg 2.53 µg/m3 0.31 µg/m3
2022-08-06 14:00 22.81 µg/m3 0.31 µg/m3 90.82 µg/m3 23 µg/m3 8.29 µg/m3 0.19 mg/m3 33.45 °C 32.97 % 1,012.35 mbar 3.29 m/s 262 Deg 2.88 µg/m3 0.42 µg/m3
2022-08-06 13:00 17.21 µg/m3 0.25 µg/m3 89.65 µg/m3 28.87 µg/m3 10.11 µg/m3 0.19 mg/m3 33.11 °C 40.2 % 1,012.54 mbar 3.14 m/s 259.17 Deg 3.06 µg/m3 0.52 µg/m3
2022-08-06 12:00 21.92 µg/m3 0.25 µg/m3 83.71 µg/m3 35.57 µg/m3 15.7 µg/m3 0.25 mg/m3 32.47 °C 51.84 % 1,012.72 mbar 2.27 m/s 289.98 Deg 5.56 µg/m3 0.52 µg/m3
2022-08-06 11:00 20.21 µg/m3 0.17 µg/m3 81.73 µg/m3 33.8 µg/m3 14.9 µg/m3 0.24 mg/m3 31.86 °C 53.13 % 1,012.93 mbar 2.64 m/s 273.52 Deg 4.29 µg/m3 0.58 µg/m3
2022-08-06 10:00 21.31 µg/m3 0.22 µg/m3 76.58 µg/m3 32.21 µg/m3 13.62 µg/m3 0.23 mg/m3 31.25 °C 51.76 % 1,012.85 mbar 2.86 m/s 266.47 Deg 4.48 µg/m3 0.47 µg/m3
2022-08-06 09:00 22.94 µg/m3 0.28 µg/m3 68.94 µg/m3 31.8 µg/m3 11.64 µg/m3 0.24 mg/m3 30.19 °C 54.97 % 1,012.71 mbar 2.97 m/s 269.2 Deg 4.98 µg/m3 0.52 µg/m3
2022-08-06 08:00 26.35 µg/m3 0.24 µg/m3 58.31 µg/m3 27.39 µg/m3 10.59 µg/m3 0.22 mg/m3 29.2 °C 60.37 % 1,012.70 mbar 2.49 m/s 264.7 Deg 5.95 µg/m3 0.52 µg/m3
2022-08-06 07:00 25.44 µg/m3 0.25 µg/m3 54.11 µg/m3 22.63 µg/m3 10.95 µg/m3 0.24 mg/m3 28.17 °C 72.05 % 1,012.73 mbar 2.12 m/s 267.23 Deg 4.26 µg/m3 6.3 µg/m3
2022-08-06 06:00 20.56 µg/m3 0.33 µg/m3 55.7 µg/m3 16.71 µg/m3 11.6 µg/m3 0.23 mg/m3 27.38 °C 78.34 % 1,012.67 mbar 1.39 m/s 246.27 Deg 2.12 µg/m3 0.37 µg/m3
2022-08-06 05:00 14.23 µg/m3 0.24 µg/m3 60.35 µg/m3 15.61 µg/m3 11.3 µg/m3 0.18 mg/m3 27.36 °C 77.57 % 1,012.42 mbar 1.06 m/s 239.93 Deg 0.91 µg/m3 0.42 µg/m3
2022-08-06 04:00 11.33 µg/m3 0.23 µg/m3 62.94 µg/m3 14.73 µg/m3 10.83 µg/m3 0.16 mg/m3 27.51 °C 77.01 % 1,012.48 mbar 1.68 m/s 249.08 Deg 1.01 µg/m3 0.21 µg/m3
2022-08-06 03:00 16.15 µg/m3 0.24 µg/m3 56.37 µg/m3 15.04 µg/m3 10.98 µg/m3 0.16 mg/m3 27.56 °C 77.63 % 1,012.63 mbar 1.52 m/s 256.05 Deg 1.99 µg/m3 0.31 µg/m3
2022-08-06 02:00 25.33 µg/m3 0.23 µg/m3 48.61 µg/m3 16.17 µg/m3 12.14 µg/m3 0.16 mg/m3 27.61 °C 78.49 % 1,012.73 mbar 1.85 m/s 251.92 Deg 6.75 µg/m3 0.47 µg/m3
2022-08-06 01:00 23.03 µg/m3 0.31 µg/m3 48.09 µg/m3 26.55 µg/m3 19.52 µg/m3 0.22 mg/m3 27.77 °C 76.54 % 1,013.01 mbar 1.57 m/s 245.57 Deg 3.44 µg/m3 0.63 µg/m3
2022-08-06 00:00 21.63 µg/m3 0.2 µg/m3 55.27 µg/m3 27.33 µg/m3 17.76 µg/m3 0.21 mg/m3 28.05 °C 73.4 % 1,013.44 mbar 1.48 m/s 244.03 Deg 2.73 µg/m3 0.47 µg/m3
2022-08-05 23:00 21.02 µg/m3 0.24 µg/m3 63.12 µg/m3 51.16 µg/m3 31.73 µg/m3 0.2 mg/m3 28.42 °C 68.28 % 1,013.44 mbar 2 m/s 249.73 Deg 1.95 µg/m3 0.63 µg/m3
2022-08-05 22:00 30.17 µg/m3 0.31 µg/m3 67.32 µg/m3 29.32 µg/m3 17.21 µg/m3 0.26 mg/m3 29.17 °C 55.45 % 1,013.52 mbar 1.61 m/s 260.83 Deg 1.32 µg/m3 0.89 µg/m3
2022-08-05 21:00 29.1 µg/m3 0.25 µg/m3 63.52 µg/m3 31.54 µg/m3 13.31 µg/m3 0.29 mg/m3 29.28 °C 58.73 % 1,013.60 mbar 1.36 m/s 261.93 Deg 2.41 µg/m3 1.05 µg/m3
2022-08-05 20:00 37.05 µg/m3 0.24 µg/m3 60.28 µg/m3 29.18 µg/m3 13.7 µg/m3 0.31 mg/m3 29.79 °C 55.42 % 1,013.17 mbar 1.58 m/s 256.62 Deg 3.77 µg/m3 0.84 µg/m3
2022-08-05 19:00 44.73 µg/m3 0.31 µg/m3 74.72 µg/m3 26.6 µg/m3 14.16 µg/m3 0.27 mg/m3 30.94 °C 45.08 % 1,012.88 mbar 2 m/s 262.43 Deg 4.23 µg/m3 0.58 µg/m3
2022-08-05 18:00 46.8 µg/m3 0.26 µg/m3 81.99 µg/m3 23.02 µg/m3 10.86 µg/m3 0.25 mg/m3 31.95 °C 39.13 % 1,012.85 mbar 2.57 m/s 252.07 Deg 5.07 µg/m3 0.63 µg/m3
2022-08-05 17:00 42.25 µg/m3 0.28 µg/m3 88.53 µg/m3 26.29 µg/m3 10.98 µg/m3 0.25 mg/m3 32.44 °C 38.71 % 1,013.14 mbar 2.55 m/s 252.98 Deg 4.11 µg/m3 0.63 µg/m3
2022-08-05 16:00 37.64 µg/m3 0.34 µg/m3 87.71 µg/m3 34.18 µg/m3 13.09 µg/m3 0.25 mg/m3 32.56 °C 42.48 % 1,013.39 mbar 2.39 m/s 287.3 Deg 6.85 µg/m3 0.58 µg/m3
2022-08-05 15:00 35.38 µg/m3 0.41 µg/m3 84.34 µg/m3 50.47 µg/m3 14.23 µg/m3 0.25 mg/m3 32.44 °C 39.41 % 1,013.71 mbar 2.29 m/s 322.82 Deg 16.13 µg/m3 0.47 µg/m3
2022-08-05 14:00 35.68 µg/m3 0.43 µg/m3 77.51 µg/m3 33.57 µg/m3 10.79 µg/m3 0.26 mg/m3 32.09 °C 37.75 % 1,014.13 mbar 2.34 m/s 329.95 Deg 15.44 µg/m3 0.94 µg/m3
2022-08-05 13:00 26.89 µg/m3 0.45 µg/m3 76.23 µg/m3 33.53 µg/m3 12.19 µg/m3 0.33 mg/m3 31.65 °C 44.84 % 1,014.43 mbar 2.15 m/s 340.08 Deg 18.35 µg/m3 1.15 µg/m3
2022-08-05 12:00 35.31 µg/m3 0.49 µg/m3 70.55 µg/m3 31.35 µg/m3 13.39 µg/m3 0.37 mg/m3 30.98 °C 54.57 % 1,014.64 mbar 1.92 m/s 255.08 Deg 21.88 µg/m3 0.73 µg/m3
2022-08-05 11:00 21.57 µg/m3 0.33 µg/m3 75.36 µg/m3 21.74 µg/m3 8.68 µg/m3 0.26 mg/m3 30.17 °C 57.19 % 1,014.81 mbar 2.14 m/s 315.27 Deg 8.88 µg/m3 0.58 µg/m3
2022-08-05 10:00 23.52 µg/m3 0.39 µg/m3 64.74 µg/m3 24.45 µg/m3 9.67 µg/m3 0.29 mg/m3 30.17 °C 57.86 % 1,014.76 mbar 1.93 m/s 325.6 Deg 10.92 µg/m3 0.89 µg/m3
2022-08-05 09:00 35.75 µg/m3 0.52 µg/m3 52.85 µg/m3 37 µg/m3 12.78 µg/m3 0.38 mg/m3 30.78 °C 49.5 % 1,014.62 mbar 1.52 m/s 312.13 Deg 19.06 µg/m3 1.26 µg/m3
2022-08-05 08:00 41.79 µg/m3 0.36 µg/m3 42.63 µg/m3 32.96 µg/m3 12.12 µg/m3 0.3 mg/m3 29.56 °C 57.64 % 1,014.29 mbar 1.52 m/s 262.9 Deg 13.34 µg/m3 1.05 µg/m3
2022-08-05 07:00 51.25 µg/m3 0.45 µg/m3 32.12 µg/m3 38.19 µg/m3 18.19 µg/m3 0.41 mg/m3 28.2 °C 70.89 % 1,014.07 mbar 1.41 m/s 281.85 Deg 17.21 µg/m3 1.47 µg/m3
2022-08-05 06:00 50.79 µg/m3 0.39 µg/m3 25.44 µg/m3 26.02 µg/m3 17.55 µg/m3 0.38 mg/m3 27.32 °C 76.07 % 1,013.92 mbar 0.8 m/s 242.83 Deg 8.32 µg/m3 1.15 µg/m3
2022-08-05 05:00 22.63 µg/m3 0.24 µg/m3 54.07 µg/m3 22.12 µg/m3 16.62 µg/m3 0.22 mg/m3 27.21 °C 78.27 % 1,013.79 mbar 0.82 m/s 239.57 Deg 0.67 µg/m3 0.42 µg/m3
2022-08-05 04:00 10.39 µg/m3 0.26 µg/m3 82.84 µg/m3 20.61 µg/m3 15.82 µg/m3 0.17 mg/m3 27.42 °C 78.15 % 1,013.82 mbar 0.79 m/s 264.63 Deg 0.09 µg/m3 0.47 µg/m3
2022-08-05 03:00 8.12 µg/m3 0.19 µg/m3 96.46 µg/m3 19.26 µg/m3 14.5 µg/m3 0.16 mg/m3 27.69 °C 77.45 % 1,014.04 mbar 0.81 m/s 278.33 Deg 0.16 µg/m3 0.58 µg/m3
2022-08-05 02:00 9.27 µg/m3 0.23 µg/m3 89.59 µg/m3 19.87 µg/m3 14.74 µg/m3 0.17 mg/m3 27.78 °C 74.1 % 1,014.36 mbar 0.91 m/s 244.63 Deg 0.08 µg/m3 0.42 µg/m3
2022-08-05 01:00 12.81 µg/m3 0.22 µg/m3 72.78 µg/m3 19.37 µg/m3 13.55 µg/m3 0.18 mg/m3 28.14 °C 74.63 % 1,014.62 mbar 0.94 m/s 282.57 Deg 0.29 µg/m3 0.47 µg/m3
2022-08-05 00:00 21.55 µg/m3 0.34 µg/m3 71.59 µg/m3 19.31 µg/m3 11.6 µg/m3 0.27 mg/m3 28.51 °C 69.65 % 1,014.73 mbar 1.13 m/s 181.62 Deg 4.28 µg/m3 1.52 µg/m3
2022-08-04 23:00 27.57 µg/m3 0.44 µg/m3 69.41 µg/m3 21.75 µg/m3 12.24 µg/m3 0.33 mg/m3 28.47 °C 69.28 % 1,014.77 mbar 0.95 m/s 57.5 Deg 16.4 µg/m3 1.26 µg/m3
2022-08-04 22:00 33.19 µg/m3 0.49 µg/m3 68.36 µg/m3 22.45 µg/m3 12.41 µg/m3 0.35 mg/m3 28.64 °C 68.98 % 1,014.84 mbar 1.12 m/s 49.8 Deg 20.1 µg/m3 1.26 µg/m3
2022-08-04 21:00 30.69 µg/m3 0.42 µg/m3 74.99 µg/m3 24.08 µg/m3 12.09 µg/m3 0.4 mg/m3 28.98 °C 67.19 % 1,014.74 mbar 1.36 m/s 32.33 Deg 15.54 µg/m3 1.68 µg/m3
2022-08-04 20:00 34.95 µg/m3 0.54 µg/m3 80.9 µg/m3 24.83 µg/m3 13.49 µg/m3 0.5 mg/m3 29.07 °C 65.63 % 1,014.22 mbar 1.66 m/s 45 Deg 21.75 µg/m3 1.78 µg/m3
2022-08-04 19:00 34.21 µg/m3 0.47 µg/m3 94.99 µg/m3 28.34 µg/m3 13.73 µg/m3 0.45 mg/m3 29.47 °C 63.71 % 1,014.09 mbar 1.94 m/s 41.92 Deg 17.34 µg/m3 1.42 µg/m3
2022-08-04 18:00 34.87 µg/m3 0.48 µg/m3 96.84 µg/m3 26.82 µg/m3 13.09 µg/m3 0.44 mg/m3 29.83 °C 60.83 % 1,014.05 mbar 2.98 m/s 39.5 Deg 19.08 µg/m3 1.57 µg/m3
2022-08-04 17:00 40.41 µg/m3 0.59 µg/m3 93.11 µg/m3 42.09 µg/m3 17.44 µg/m3 0.41 mg/m3 30.59 °C 52.28 % 1,013.89 mbar 3.3 m/s 46.28 Deg 29.1 µg/m3 0.94 µg/m3
2022-08-04 16:00 24.92 µg/m3 0.43 µg/m3 96.35 µg/m3 32.59 µg/m3 14.7 µg/m3 0.34 mg/m3 30.78 °C 46.5 % 1,013.81 mbar 3.34 m/s 53.9 Deg 19.86 µg/m3 1.05 µg/m3
2022-08-04 15:00 35.78 µg/m3 0.55 µg/m3 100.49 µg/m3 118.02 µg/m3 29.19 µg/m3 0.42 mg/m3 29.9 °C 58.46 % 1,014.14 mbar 3.24 m/s 55.03 Deg 24.18 µg/m3 1.47 µg/m3
2022-08-04 14:00 25.82 µg/m3 0.51 µg/m3 106.1 µg/m3 32.92 µg/m3 13.99 µg/m3 0.4 mg/m3 29.4 °C 65.74 % 1,014.47 mbar 3.28 m/s 53.25 Deg 26.18 µg/m3 1.36 µg/m3
2022-08-04 13:00 33.14 µg/m3 0.48 µg/m3 103.36 µg/m3 17.63 µg/m3 11.04 µg/m3 0.34 mg/m3 29.25 °C 66.1 % 1,014.85 mbar 3.6 m/s 51.42 Deg 22.65 µg/m3 1.1 µg/m3
2022-08-04 12:00 25.95 µg/m3 0.51 µg/m3 95.94 µg/m3 20.03 µg/m3 11.26 µg/m3 0.34 mg/m3 29.13 °C 64.87 % 1,015.10 mbar 3.32 m/s 52.42 Deg 26.51 µg/m3 1 µg/m3
2022-08-04 11:00 27.46 µg/m3 0.45 µg/m3 94.85 µg/m3 18.33 µg/m3 10.97 µg/m3 0.36 mg/m3 29.17 °C 65.59 % 1,015.12 mbar 2.64 m/s 49.8 Deg 22.61 µg/m3 1.26 µg/m3
2022-08-04 10:00 35.99 µg/m3 0.52 µg/m3 81.76 µg/m3 19.62 µg/m3 11.8 µg/m3 0.4 mg/m3 29.1 °C 67.15 % 1,014.90 mbar 2.24 m/s 45.32 Deg 27.91 µg/m3 1.15 µg/m3
2022-08-04 09:00 38.21 µg/m3 0.5 µg/m3 67.17 µg/m3 23.05 µg/m3 11.63 µg/m3 0.42 mg/m3 29.02 °C 67.87 % 1,014.58 mbar 1.87 m/s 29.73 Deg 25.91 µg/m3 0.94 µg/m3
2022-08-04 08:00 30.59 µg/m3 0.38 µg/m3 61.05 µg/m3 32.87 µg/m3 12.38 µg/m3 0.44 mg/m3 28.8 °C 66.36 % 1,014.20 mbar 1.22 m/s 104.63 Deg 16.7 µg/m3 1.52 µg/m3
2022-08-04 07:00 39.52 µg/m3 0.47 µg/m3 46.71 µg/m3 28.71 µg/m3 12.2 µg/m3 0.47 mg/m3 28.3 °C 64.74 % 1,013.80 mbar 0.94 m/s 22.37 Deg 23.01 µg/m3 1.26 µg/m3
2022-08-04 06:00 36.54 µg/m3 0.33 µg/m3 42.82 µg/m3 25.07 µg/m3 12.64 µg/m3 0.3 mg/m3 27.41 °C 69.06 % 1,013.49 mbar 0.86 m/s 311.18 Deg 6.28 µg/m3 1.94 µg/m3
2022-08-04 05:00 47.72 µg/m3 0.62 µg/m3 20.56 µg/m3 23.84 µg/m3 16.01 µg/m3 0.47 mg/m3 27.07 °C 70.93 % 1,013.27 mbar 0.25 m/s 238.14 Deg 19.23 µg/m3 2.31 µg/m3
2022-08-04 04:00 23.31 µg/m3 0.27 µg/m3 47.39 µg/m3 22.81 µg/m3 13.12 µg/m3 0.25 mg/m3 27.2 °C 67.57 % 1,013.33 mbar 0.26 m/s 215.57 Deg 0.65 µg/m3 0.63 µg/m3
2022-08-04 03:00 18.29 µg/m3 0.2 µg/m3 59.89 µg/m3 21.03 µg/m3 10.83 µg/m3 0.2 mg/m3 27.27 °C 67.64 % 1,013.44 mbar 0.56 m/s 216.86 Deg 0.37 µg/m3 0.68 µg/m3
2022-08-04 02:00 9.89 µg/m3 0.29 µg/m3 76.99 µg/m3 12 µg/m3 8.04 µg/m3 0.22 mg/m3 27.51 °C 68.11 % 1,013.74 mbar 0.95 m/s 69.5 Deg 7.93 µg/m3 0.94 µg/m3
2022-08-04 01:00 19.22 µg/m3 0.3 µg/m3 74.92 µg/m3 12.51 µg/m3 8.36 µg/m3 0.24 mg/m3 27.66 °C 68.11 % 1,013.87 mbar 0.84 m/s 66.6 Deg 8.32 µg/m3 0.89 µg/m3
2022-08-04 00:00 17.32 µg/m3 0.32 µg/m3 81.98 µg/m3 13.26 µg/m3 8.43 µg/m3 0.26 mg/m3 27.79 °C 67.3 % 1,013.99 mbar 1.37 m/s 52.07 Deg 7.45 µg/m3 0.79 µg/m3
2022-08-03 23:00 23.22 µg/m3 0.36 µg/m3 75.51 µg/m3 14.26 µg/m3 8.75 µg/m3 0.3 mg/m3 27.81 °C 68.42 % 1,013.81 mbar 1.91 m/s 55.85 Deg 16.57 µg/m3 0.89 µg/m3
2022-08-03 22:00 24.92 µg/m3 0.36 µg/m3 76.16 µg/m3 14.85 µg/m3 9.35 µg/m3 0.33 mg/m3 28.01 °C 67.26 % 1,013.76 mbar 2.16 m/s 58.25 Deg 15.67 µg/m3 0.94 µg/m3

It is to be noted that the data is provisional and subject to quality assurance procedures. For validated data kindly refer your request to contact.air@era.org.mt